{"data":{"norad_id":59802,"epoch":"2026-05-25T00:23:48.064992Z","epoch_age_seconds":87811,"freshness":"FRESH","line1":"1 59802U 24093W   26145.01652853  .00001651  00000+0  69505-4 0  9991","line2":"2 59802  43.0021 138.2525 0001528 276.5187  83.5491 15.27591342114368","mean_motion":15.27591342,"eccentricity":0.0001528,"inclination_deg":43.0021,"raan_deg":138.2525,"arg_perigee_deg":276.5187,"mean_anomaly_deg":83.5491,"bstar":6.9505e-5,"rev_number":11436,"period_min":94.26604880561,"perigee_km":481.96675017541,"apogee_km":484.06351826763,"semimajor_km":6861.1521342215,"source":"CELESTRAK","updated_at":"2026-05-25T13:38:19.084165Z"}}